Regional Weather Roundup
Issued by NWS

Home | Current Version | Previous Version | Text Only | Print | Product List | Glossary On
Versions: 1 2 3 4 5 6 7 8 9 10 11 12 13 14 15 16 17 18 19 20 21 22 23 24 25 26 27 28 29 30 31 32 33 34 35 36 37 38 39 40 41 42 43 44 45 46 47 48 49 50
000
ASUS43 KDTX 172110
RWRMI
MICHIGAN HOURLY REGIONAL WEATHER ROUNDUP
NATIONAL WEATHER SERVICE DETROIT/PONTIAC MI
500 PM EDT THU AUG 17 2017

NOTE: "FAIR" INDICATES FEW OR NO CLOUDS BELOW 12,000 FEET WITH NO
SIGNIFICANT WEATHER AND/OR OBSTRUCTION TO VISIBILITY.

MIZ047>049-052>055-059>063-066>070-074>076-081>083-172200-
SOUTHEAST LOWER MICHIGAN

CITY           SKY/WX    TMP DP  RH WIND       PRES   REMARKS
ADRIAN         MOSUNNY   82  69  64 SW14      29.75F
ALMA           MOSUNNY   81  72  74 S10G20    29.69F
ANN ARBOR      MOSUNNY   81  74  79 S12       29.75F
BAD AXE        CLOUDY    75  73  93 S9        29.74F FOG
CARO           LGT RAIN  75  72  89 SE5       29.71F
DETROIT CITY   CLOUDY    74  72  93 SE3       29.75F
DETROIT        CLOUDY    78  74  87 S12       29.76F
FLINT          CLOUDY    82  71  69 S14       29.72F
GROSSE ILE     CLOUDY    76  74  93 S8        29.74F
HILLSDALE      CLOUDY    79  70  73 SW7       29.75F
HOWELL         CLOUDY    82  71  68 S13       29.73F

CITY           SKY/WX    TMP DP  RH WIND       PRES   REMARKS
JACKSON          N/A     82  71  69 SW10      29.73F
LAMBERTVILLE   PTSUNNY   81  74  78 SW8       29.75S
LANSING        PTSUNNY   84  69  60 S13       29.70F
LAPEER         PTSUNNY   80  71  73 S14G20    29.74F
MASON          PTSUNNY   84  69  61 SW9G17    29.72F
MONROE         CLOUDY    79  75  88 S7G21     29.74F
MT. CLEMENS    CLOUDY    76  76 100 SE12      29.75F
PONTIAC        PTSUNNY   78  73  84 S9        29.74F
PORT HOPE        N/A     72  70  93 S7        29.72F
PORT HURON     CLOUDY    79  73  83 S9G16     29.75F
TRI CITIES     CLOUDY    79  75  87 S9        29.71F
MIDLAND        CLOUDY    80  71  75 S7        29.68F
TROY           CLOUDY    76  72  86 SE9       29.77F
SAGINAW HB     MOSUNNY   77  73  88 S8        29.69F
$$
MIZ043>046-050>051-056>058-064>065-071>073-077>080-172200-
SOUTHWEST LOWER MICHIGAN

CITY           SKY/WX    TMP DP  RH WIND       PRES   REMARKS
BATTLE CREEK   PTSUNNY   82  69  64 SW16      29.72F
BENTON HARBOR  MOSUNNY   84  65  52 SW22G30   29.72F
BIG RAPIDS     LGT RAIN  73  68  84 SW6       29.69S
COLDWATER      PTSUNNY   82  69  63 SW13G22   29.74F
FREMONT        CLOUDY    74  72  91 SW14G20   29.68F
HOLLAND        CLOUDY    78  68  71 SW22G30   29.72S
GRAND RAPIDS   PTSUNNY   82  69  64 SW22      29.70F
IONIA          FAIR      83  70  66 W10G18    29.69F
KALAMAZOO      PTSUNNY   85  66  53 SW14      29.72F
LUDINGTON      CLOUDY    74  68  80 S18       29.64F
MARSHALL       MOSUNNY   84  67  57 SW15G22   29.72F
MOUNT PLEASANT MOSUNNY   82  70  68 S8        29.67F
MUSKEGON       CLOUDY    75  71  87 S14       29.69S
SOUTH HAVEN    SUNNY     82  68  63 SW14G24   29.72S
$$
MIZ016>042-172200-
NORTHERN LOWER MICHIGAN

CITY           SKY/WX    TMP DP  RH WIND       PRES   REMARKS
ALPENA         CLOUDY    71  70  96 S6        29.71F
BEAVER ISLAND  CLOUDY    75  69  83 SE6       29.62F
BELLAIRE       CLOUDY    75  72  90 CALM      29.62F
CADILLAC       PTSUNNY   76  70  81 S15       29.68F
CHARLEVOIX     CLOUDY    76  73  89 SE6       29.65F
FRANKFORT      CLOUDY    76  72  86 S12G18    29.62F
GAYLORD        CLOUDY    73  68  84 S13       29.68F
GRAYLING       CLOUDY    76  69  80 S6        29.68F
HARBOR SPRINGS RAIN      73  72  94 E5        29.63F
HOUGHTON LAKE  CLOUDY    76  71  85 S8G17     29.69F
MANISTEE       CLOUDY    77  70  79 S13G18    29.62F
OSCODA         CLOUDY    74  71  92 S8        29.70F FOG
PELLSTON       LGT RAIN  73  70  90 SE7       29.64F
ROGERS CITY    CLOUDY    69  67  94 SE9       29.71F FOG
TRAVERSE CITY  PTSUNNY   80  70  71 VRB7G17   29.61S
$$
MIZ007>008-015-172200-
EASTERN UPPER MICHIGAN

CITY           SKY/WX    TMP DP  RH WIND       PRES   REMARKS
KINROSS        LGT RAIN  65  64  97 E17       29.67F FOG
MACKINAC ISLAN CLOUDY    67  67 100 E10G17    29.64F FOG
NEWBERRY       LGT RAIN  67  66  97 SE9       29.62F
S. S. MARIE    CLOUDY    66  64  93 E10G26    29.68F FOG
MUNISING         N/A     76  72  87 S9        29.54F
$$
MIZ004>006-011>014-085-172200-
CENTRAL UPPER MICHIGAN

CITY           SKY/WX    TMP DP  RH WIND       PRES   REMARKS
MANISTIQUE     CLOUDY    69  63  81 S9G16     29.60F HAZE
ESCANABA       PTSUNNY   73  69  87 S9        29.54F
MENOMINEE      CLOUDY    75  66  73 VRB7      29.55S
SAWYER-GWINN   MOSUNNY   73  68  83 S12       29.55F
$$
MIZ001>003-009>011-084-172200-
WESTERN UPPER MICHIGAN

CITY           SKY/WX    TMP DP  RH WIND       PRES   REMARKS
IRON MOUNTAIN  PTSUNNY   76  62  62 S15       29.53S
HOUGHTON       LGT RAIN  64  63  96 SE6       29.55S VSB 1/4
COPPER HARBOR    N/A     59  58  96 SE3       29.55S
IRONWOOD       LGT RAIN  63  62  97 W9        29.59R
$$

ABBREVIATIONS USED IN REMARKS
   TC - TEMPERATURE IN CELSIUS
  WCI - WIND CHILL INDEX
   HX - HEAT INDEX
  VSB - VISIBILITY





USA.gov is the U.S. government's official web portal to all federal, state and local government web resources and services.